IRIDIUM 70 [P]

Last updated on Wed Sep 26 2018 02:52:44 GMT+0000 (Coordinated Universal Time)

1 25342U 98032A 18267.91516892 .00168687 49140-5 82209-3 0 9996 2 25342 86.4200 29.8271 0334630 356.2587 3.6160 15.31656778 65480

Satellite not in orbit